Starlink 33919

operational
NORAD ID: 63699 Int'l Des: 2025-087 Owner: SPXS Country: US Constellation: starlink
LEOCIRCULAR

About Starlink 33919

Description loading...

Live Position

Loading 3D Globe...

Upcoming Passes

Altitude History

Altitude vs Time

uPlot chart will show altitude changes over time

Two-Line Element Set

1 63699U 25087C 25307.43040893 .00031711 00000-0 10780-2 0 9994
2 63699 53.1585 86.3821 0000996 105.1026 255.0085 15.30208143 29866
Epoch: Nov 3, 2025 • Age: 24 hours

Current Status

Altitude 480.4 km
Velocity 7.63 km/s
Sub-Earth Point 51.01°N, 3.61°W
Launch Date Apr 28, 2025
Age 0.5 years
Type internet

Technical Details

Classification Payload
Mass 575.00 kg
Dry Mass 530.00 kg
Total Mass 575.00 kg
Length 0.30 m
Diameter 4.10 m
Span 29.00 m
Shape Box + pan
Manufacturer SPXS
Bus Type Starlink V2MO
Phase Status In Orbit
Owner/State SPXS/US

Large Constellations

Loading constellations...